CZ-6A DEB, 57575

Orbit data source: Space-Track

CZ-6A DEB, 57575 is space debris in SSO originally from a launch on Fri, 11 Nov 2022 UTC launched from the Taiyaun Space Center, China (TSC). Debris objects in space refer to the collection of defunct objects orbiting the Earth. Examples of debris include non-operational satellites, rocket bodies, and fragments generated from explosions, collisions, or faulty payload assembly.

Loading next visibility...
Identifier
57575, 2022-151AHS
Orbit
SSO
Country
Flag of CNCN / PRC
Related business
Manufacturer
SAST
Mission
Spacecraft
Bus & Motor
Unknown
Mass
Unknown
Launch date (UTC)
2022-11-11 (4 years ago)
Launch vehicle
Unknown
Launch site
Taiyaun Space Center, China (TSC)
Object type
Payload
Rocket body
Debris
Shape & HBR
Unknown shape, 0.1 m
Radar Cross Section
Medium (>0.1 m² and <1 m²)

Expand to show TLE details & history
Last TLE update: 1 day ago

TLE from 1 day ago
0 CZ-6A DEB
1 57575U 22151AHS 26235.48047274  .00002452  00000-0  11154-2 0  9991
2 57575  98.8108 241.7721 0045857 102.6459 257.9851 14.22092637180827
Epoch: 2026-08-23T11:31Z
TLE epoch observation values (Epoch: 2026-08-23T11:31:52.844Z)
Latitude
-0.00006°
Longitude
97.02601°
Altitude
828.214 km
Speed
7.435 km/s
True Right ascension
16h 07m 05s
True Declination
0° 00' 00"
Sunlit
Object was in daylight at epoch
Visualization orbit readout
Latitude
Unknown
Longitude
Unknown
Altitude
Unknown
Speed
Unknown
Apparent Right ascension
Unknown
Apparent Declination
Unknown
Sunlit
N/A
Visualization observer readout
Local Sidereal Time
05:20:43
Azimuth
Unknown
Elevation
Unknown
Doppler factor
Unknown
Orbital elements
Apogee altitude
848.433 km
Perigee altitude
782.457 km
Semi-major axis
7,193.582 km
Eccentricity
0.00459
Inclination
98.8108°
RAAN
241.7721°
Arg. of periapsis
102.6459°
True anomaly
257.47175°
Mean anomaly
257.9851°
Eccentric anomaly
257.72836°
Mean motion
3.55734 °/min
Orbital period
101.2 mins
BSTAR
0.0011154
Loading maneuver chart data...
Computing Atmospheric mass density...
Loading historical data...
Loading historical data...
Loading historical data...
Loading historical data...
Loading historical data...
Loading historical data...
Loading historical data...

Documentation

Showing up to 5 results
|